Weather History for Lafayette, LA

Change the Weather History Date:

Thursday, December 5, 2013

  Actual Average Record
Temperature  
Mean Temperature 76 °F 56 °F  
Max Temperature 80 °F 66 °F 84 °F (1916)
Min Temperature 71 °F 46 °F 24 °F (1898)
Degree Days  
Heating Degree Days 0 10  
Month to date heating degree days 12 47  
Since 1 July heating degree days 281 246  
Cooling Degree Days 10    
Growing Degree Days 26 (Base 50)    
Moisture  
Dew Point 71 °F    
Average Humidity 81    
Maximum Humidity 93    
Minimum Humidity 69    
Precipitation  
Precipitation 0.00 in 0.17 in 5.09 in (1971)
Month to date precipitation 0.00 0.85  
Year to date precipitation 53.77 55.77  
Snow  
Snow 0.00 in 0.00 in 0.00 in ()
Month to date snowfall 0.0 0.0  
Since 1 July snowfall 0.0 0.0  
Snow Depth 0.00 in    
Sea Level Pressure  
Sea Level Pressure 29.93 in    
Wind  
Wind Speed 9 mph (South)    
Max Wind Speed 17 mph    
Max Gust Speed 22 mph    
Visibility 9 miles    
Events      
T = Trace of Precipitation, MM = Missing Value Source: NWS Daily Summary

Daily Weather History Graph

Daily Weather History Graph

Search for Another Location

Airport:

Trip Planner

Search our weather history database for the weather conditions in past years. The results will help you decide how hot, cold, wet, or windy it might be!

Date:

Astronomy

Dec. 05, 2013 Rise Set
Actual Time 6:49 AM CST 5:07 PM CST
Civil Twilight 6:23 AM CST 5:33 PM CST
Nautical Twilight 5:54 AM CST 6:03 PM CST
Astronomical Twilight 5:24 AM CST 6:32 PM CST
Moon 9:15 AM CST (12/5) 8:21 PM CST (12/5)
Length of Visible Light 11h 09m
Length of Day
10h 17m
Waxing Crescent, 11% of the Moon is Illuminated
Dec 5
Waxing Crescent
Dec 9
First Quarter
Dec 17
Full
Dec 25
Last Quarter
Jan 1
New

Hourly Weather History & Observations

Time (CST) Temp. Heat Index Dew Point Humidity Pressure Visibility Wind Dir Wind Speed Gust Speed Precip Events Conditions
12:22 AM 71.6 °F - 69.8 °F 94% 29.90 in 10.0 mi South 8.1 mph - N/A   Overcast
12:30 AM 71.6 °F - 69.8 °F 94% 29.90 in 10.0 mi South 8.1 mph - N/A   Overcast
12:42 AM 71.6 °F - 69.8 °F 94% 29.90 in 10.0 mi South 9.2 mph - N/A   Overcast
12:53 AM 72.0 °F - 70.0 °F 93% 29.90 in 10.0 mi South 6.9 mph - N/A   Overcast
1:09 AM 71.6 °F - 69.8 °F 94% 29.90 in 10.0 mi South 6.9 mph - N/A   Overcast
1:53 AM 72.0 °F - 70.0 °F 93% 29.90 in 10.0 mi South 9.2 mph - N/A   Overcast
2:14 AM 71.6 °F - 69.8 °F 94% 29.91 in 10.0 mi South 4.6 mph - N/A   Overcast
2:53 AM 71.1 °F - 69.1 °F 93% 29.90 in 10.0 mi South 6.9 mph - N/A   Overcast
3:15 AM 71.6 °F - 69.8 °F 94% 29.90 in 9.0 mi South 6.9 mph - N/A   Overcast
3:53 AM 72.0 °F - 70.0 °F 93% 29.90 in 10.0 mi South 6.9 mph - N/A   Overcast
4:53 AM 72.0 °F - 70.0 °F 93% 29.91 in 10.0 mi South 8.1 mph - N/A   Overcast
5:53 AM 72.0 °F - 70.0 °F 93% 29.92 in 10.0 mi South 8.1 mph - N/A   Overcast
6:53 AM 71.1 °F - 70.0 °F 96% 29.94 in 9.0 mi South 9.2 mph - N/A   Mostly Cloudy
7:08 AM 71.6 °F - 69.8 °F 94% 29.94 in 6.0 mi South 8.1 mph - N/A   Overcast
7:53 AM 71.1 °F - 70.0 °F 96% 29.97 in 5.0 mi South 5.8 mph - N/A   Overcast
8:53 AM 73.0 °F - 71.1 °F 93% 29.98 in 8.0 mi South 8.1 mph - N/A   Overcast
9:53 AM 75.0 °F - 71.1 °F 87% 29.99 in 10.0 mi South 11.5 mph - N/A   Overcast
10:32 AM 77.0 °F - 71.6 °F 83% 29.99 in 10.0 mi South 12.7 mph - N/A   Mostly Cloudy
10:40 AM 77.0 °F - 71.6 °F 83% 29.99 in 10.0 mi South 13.8 mph - N/A   Mostly Cloudy
10:48 AM 78.8 °F - 71.6 °F 78% 29.99 in 10.0 mi South 11.5 mph - N/A   Mostly Cloudy
10:53 AM 77.0 °F - 71.1 °F 82% 29.99 in 10.0 mi South 10.4 mph - N/A   Mostly Cloudy
11:01 AM 77.0 °F - 71.6 °F 83% 29.98 in 10.0 mi South 12.7 mph - N/A   Mostly Cloudy
11:08 AM 77.0 °F - 71.6 °F 83% 29.98 in 10.0 mi SSW 12.7 mph - N/A   Mostly Cloudy
11:44 AM 78.8 °F - 69.8 °F 74% 29.97 in 10.0 mi South 15.0 mph - N/A   Overcast
11:53 AM 78.1 °F - 70.0 °F 76% 29.96 in 10.0 mi South 11.5 mph - N/A   Overcast
12:53 PM 79.0 °F - 69.1 °F 72% 29.93 in 10.0 mi South 12.7 mph - N/A   Overcast
1:07 PM 78.8 °F - 69.8 °F 74% 29.93 in 10.0 mi South 10.4 mph - N/A   Overcast
1:53 PM 79.0 °F - 70.0 °F 74% 29.91 in 9.0 mi South 15.0 mph 20.7 mph N/A   Overcast
2:31 PM 78.8 °F - 71.6 °F 78% 29.91 in 10.0 mi South 8.1 mph 17.3 mph N/A   Overcast
2:53 PM 80.1 °F 83.2 °F 70.0 °F 71% 29.90 in 10.0 mi South 13.8 mph - N/A   Scattered Clouds
3:53 PM 78.1 °F - 71.1 °F 79% 29.90 in 10.0 mi South 6.9 mph 16.1 mph N/A   Scattered Clouds
4:05 PM 77.0 °F - 71.6 °F 83% 29.89 in 10.0 mi South 10.4 mph - N/A   Mostly Cloudy
4:17 PM 77.0 °F - 71.6 °F 83% 29.89 in 10.0 mi South 10.4 mph - N/A   Mostly Cloudy
4:45 PM 77.0 °F - 71.6 °F 83% 29.89 in 10.0 mi South 12.7 mph 17.3 mph N/A   Mostly Cloudy
4:53 PM 75.9 °F - 72.0 °F 87% 29.89 in 10.0 mi South 9.2 mph 17.3 mph N/A   Mostly Cloudy
5:13 PM 75.2 °F - 71.6 °F 89% 29.90 in 10.0 mi South 10.4 mph - N/A   Overcast
5:53 PM 75.0 °F - 72.0 °F 90% 29.91 in 10.0 mi South 10.4 mph - N/A   Overcast
6:04 PM 75.2 °F - 71.6 °F 89% 29.91 in 10.0 mi South 9.2 mph - N/A   Overcast
6:53 PM 73.9 °F - 72.0 °F 93% 29.92 in 10.0 mi South 8.1 mph - N/A   Overcast
7:23 PM 73.4 °F - 71.6 °F 94% 29.92 in 5.0 mi South 11.5 mph 17.3 mph N/A   Overcast
7:53 PM 73.0 °F - 72.0 °F 96% 29.93 in 4.0 mi South 6.9 mph - N/A   Overcast
8:53 PM 73.0 °F - 72.0 °F 96% 29.94 in 3.0 mi South 9.2 mph - N/A   Overcast
9:53 PM 73.0 °F - 71.1 °F 93% 29.94 in 9.0 mi South 11.5 mph - N/A   Overcast
10:53 PM 73.0 °F - 72.0 °F 96% 29.94 in 9.0 mi South 8.1 mph - N/A   Overcast
11:53 PM 73.0 °F - 71.1 °F 93% 29.94 in 7.0 mi South 8.1 mph - N/A   Overcast